Weather History for EHDL - March, 2014

Change the Weather History Date:

Friday, March 14, 2014

  Actual Average Record
Temperature  
Mean Temperature 41 °F -  
Max Temperature 55 °F 52 °F 57 °F (2011)
Min Temperature 27 °F 37 °F 19 °F (2013)
Degree Days  
Heating Degree Days 24    
Moisture  
Dew Point 36 °F    
Average Humidity 82    
Maximum Humidity 100    
Minimum Humidity 42    
Precipitation  
Precipitation 0.00 in - - ()
Sea Level Pressure  
Sea Level Pressure 30.29 in    
Wind  
Wind Speed 4 mph ()    
Max Wind Speed 12 mph    
Max Gust Speed -    
Visibility 2.9 miles    
Events Fog , Snow    
Averages and records for this station are not official NWS values.
T = Trace of Precipitation, MM = Missing Value Source: Averaged Metar Reports

Daily Weather History Graph

Daily Weather History Graph

Search for Another Location

Airport or City:

Trip Planner

Search our weather history database for the weather conditions in past years. The results will help you decide how hot, cold, wet, or windy it might be!

Date:

Astronomy

Mar. 14, 2014 Rise Set
Actual Time 6:53 AM CET 6:38 PM CET
Civil Twilight 6:19 AM CET 7:12 PM CET
Nautical Twilight 5:40 AM CET 7:52 PM CET
Astronomical Twilight 5:00 AM CET 8:32 PM CET
Moon 4:36 PM CET (3/14) 5:37 AM CET (3/14)
Length of Visible Light 12h 52m
Length of Day
11h 45m
Waxing Gibbous, 95% of the Moon is Illuminated
Mar 14
Waxing Gibbous
Mar 16
Full
Mar 24
Last Quarter
Mar 30
New
Apr 7
First Quarter

Hourly Weather History & Observations

Time (CET) Temp. Windchill Dew Point Humidity Pressure Visibility Wind Dir Wind Speed Gust Speed Precip Events Conditions
12:00 AM 35 °F - 32 °F 84% 30.41 in 4 mi North 2.2 mph - -   Mist
12:25 AM 33.8 °F - 32.0 °F 93% 30.39 in 4.3 mi Calm Calm - N/A   Partly Cloudy
12:55 AM 32.0 °F - 30.2 °F 93% 30.39 in 3.1 mi North 1.2 mph - N/A   Mist
1:00 AM 32 °F - 30 °F 88% 30.40 in 4 mi Calm Calm - -   Mist
1:25 AM 32.0 °F - 30.2 °F 93% 30.39 in 3.1 mi North 1.2 mph - N/A   Partly Cloudy
1:55 AM 30.2 °F - 28.4 °F 93% 30.39 in - North 1.2 mph - N/A   Partly Cloudy
2:00 AM 32 °F - 29 °F 86% 30.41 in 3 mi North 2.2 mph - -   Mist
2:25 AM 30.2 °F - 28.4 °F 93% 30.39 in - NNW 2.3 mph - N/A   Partly Cloudy
2:55 AM 28.4 °F - 28.4 °F 100% 30.39 in 3.1 mi NW 1.2 mph - N/A   Partly Cloudy
3:00 AM 30 °F - 29 °F 93% 30.40 in 2 mi NW 2.2 mph - -   Mist
3:25 AM 30.2 °F - 28.4 °F 93% 30.39 in - NW 1.2 mph - N/A   Partly Cloudy
3:55 AM 28.4 °F - 28.4 °F 100% 30.39 in 3.1 mi NW 1.2 mph - N/A   Partly Cloudy
4:00 AM 29 °F - 28 °F 94% 30.40 in 4 mi Calm Calm - -   Mist
4:25 AM 28.4 °F - 26.6 °F 93% 30.36 in 3.1 mi NW 1.2 mph - N/A   Partly Cloudy
4:55 AM 28.4 °F - 26.6 °F 93% 30.36 in - NW 2.3 mph - N/A   Overcast
5:00 AM 28 °F - 26 °F 89% 30.39 in 3 mi NNW 2.2 mph - -   Mist
5:25 AM 28.4 °F 24.6 °F 28.4 °F 100% 30.36 in 0.1 mi NNW 3.5 mph - N/A Fog Light Freezing Fog
5:55 AM 32.0 °F 27.5 °F 32.0 °F 100% 30.39 in 0.1 mi North 4.6 mph - N/A Snow Light Snow
6:00 AM 33 °F - 33 °F 97% 30.40 in 0 mi North 2.2 mph - - Snow Snow Grains
6:25 AM 33.8 °F - 33.8 °F 100% 30.39 in 0.1 mi NNW 1.2 mph - N/A Fog Fog
6:55 AM 33.8 °F - 33.8 °F 100% 30.36 in 0.1 mi NNW 2.3 mph - N/A   Small Hail
7:00 AM 34 °F - 34 °F 100% 30.40 in 0 mi North 2.2 mph - - Snow Snow Grains
7:25 AM 33.8 °F - 33.8 °F 100% 30.36 in 0.1 mi NNE 2.3 mph - N/A Fog Fog
7:55 AM 35.6 °F 32.8 °F 35.6 °F 100% 30.36 in 0.1 mi North 3.5 mph - N/A Fog Fog
8:00 AM 35 °F - 35 °F 98% 30.39 in 0 mi North 4.5 mph - - Fog Fog
8:25 AM 35.6 °F 32.8 °F 35.6 °F 100% 30.36 in 0.1 mi NNE 3.5 mph - N/A Fog Fog
8:55 AM 35.6 °F - 35.6 °F 100% 30.36 in 0.1 mi ENE 1.2 mph - N/A Fog Fog
9:00 AM 35 °F - 35 °F 100% 30.39 in 0 mi 2.2 mph - - Fog Fog
9:25 AM 35.6 °F - 35.6 °F 100% 30.36 in 0.1 mi ESE 1.2 mph - N/A Fog Fog
9:55 AM 35.6 °F - 35.6 °F 100% 30.36 in 0.1 mi ENE 2.3 mph - N/A Fog Fog
10:00 AM 36 °F - 36 °F 100% 30.39 in 0 mi NNE 2.2 mph - - Fog Fog
10:25 AM 37.4 °F - 37.4 °F 100% 30.36 in 0.1 mi SSE 1.2 mph - N/A Fog Fog
10:55 AM 37.4 °F - 37.4 °F 100% 30.36 in 0.1 mi SSE 1.2 mph - N/A Fog Fog
11:00 AM 37 °F - 37 °F 100% 30.38 in 0 mi South 2.2 mph - - Fog Fog
11:25 AM 39.2 °F - 39.2 °F 100% 30.36 in 0.2 mi NNE 1.2 mph - N/A Fog Fog
11:26 AM 39.2 °F - 39.2 °F 100% 30.36 in 0.2 mi NW 1.2 mph - N/A Fog Fog
11:55 AM 39.2 °F - 39.2 °F 100% 30.33 in 0.7 mi NNW 2.3 mph - N/A   Overcast
12:00 PM 40 °F - 39 °F 96% 30.36 in 1 mi 2.2 mph - - Fog Fog
12:25 PM 42.8 °F - 41.0 °F 93% 30.33 in 1.7 mi SSW 2.3 mph - N/A   Partly Cloudy
12:55 PM 48.2 °F - 42.8 °F 82% 30.30 in 3.1 mi SW 4.6 mph - N/A   Mist
1:00 PM 48 °F - 42 °F 71% 30.32 in 3 mi SSW 4.5 mph - -   Light Haze
1:25 PM 51.8 °F - 42.8 °F 71% 30.30 in 3.1 mi WSW 6.9 mph - N/A   Haze
1:55 PM 51.8 °F - 41.0 °F 67% 30.27 in 3.1 mi WSW 6.9 mph - N/A   Haze
2:00 PM 53 °F - 40 °F 52% 30.29 in 3 mi WSW 6.7 mph - -   Light Haze
2:25 PM 53.6 °F - 41.0 °F 62% 30.27 in 3.7 mi WSW 8.1 mph - N/A   Haze
2:55 PM 55.4 °F - 37.4 °F 51% 30.24 in 4.3 mi West 10.4 mph - N/A   Haze
3:00 PM 54 °F - 39 °F 45% 30.26 in 5 mi WSW 11.2 mph - -   Light Haze
3:25 PM 55.4 °F - 35.6 °F 47% 30.24 in 6.2 mi WSW 9.2 mph - N/A   Partly Cloudy
3:55 PM 55.4 °F - 37.4 °F 51% 30.21 in 6.2 mi WSW 11.5 mph - N/A   Unknown
3:56 PM 55.4 °F - 37.4 °F 51% 30.21 in 6.2 mi WSW 11.5 mph - N/A   Unknown
4:00 PM 54 °F - 38 °F 42% 30.23 in 6 mi WSW 11.2 mph - -   Scattered Clouds
4:25 PM 53.6 °F - 37.4 °F 54% 30.21 in 6.2 mi WSW 10.4 mph - N/A   Scattered Clouds
4:55 PM 53.6 °F - 37.4 °F 54% 30.18 in 6.2 mi West 10.4 mph - N/A   Unknown
5:00 PM 53 °F - 38 °F 44% 30.20 in 7 mi WSW 8.9 mph - -   Scattered Clouds
5:25 PM 51.8 °F - 39.2 °F 62% 30.18 in 6.2 mi WSW 10.4 mph - N/A   Unknown
5:55 PM 51.8 °F - 37.4 °F 58% 30.18 in 6.2 mi WSW 8.1 mph - N/A   Partly Cloudy
6:00 PM 51 °F - 38 °F 51% 30.21 in 6 mi West 8.9 mph - -   Light Haze
6:25 PM 48.2 °F - 37.4 °F 66% 30.18 in 5.6 mi WSW 6.9 mph - N/A   Haze
6:55 PM 44.6 °F 40.7 °F 33.8 °F 66% 30.18 in 6.2 mi WSW 6.9 mph - N/A   Unknown
7:00 PM 45 °F - 34 °F 56% 30.21 in 6 mi WSW 6.7 mph - -   Partly Cloudy
7:25 PM 44.6 °F 40.2 °F 35.6 °F 71% 30.18 in 5.0 mi WSW 8.1 mph - N/A   Haze
7:55 PM 44.6 °F 40.2 °F 37.4 °F 76% 30.15 in 3.7 mi SW 8.1 mph - N/A   Haze
8:00 PM 44 °F - 38 °F 72% 30.18 in 3 mi SW 8.9 mph - -   Light Haze
8:25 PM 42.8 °F 37.5 °F 39.2 °F 87% 30.15 in 3.1 mi SW 9.2 mph - N/A   Haze
8:55 PM 44.6 °F 40.2 °F 39.2 °F 81% 30.12 in 3.1 mi WSW 8.1 mph - N/A   Haze
9:00 PM 45 °F - 38 °F 70% 30.16 in 3 mi WSW 8.9 mph - -   Light Haze
9:25 PM 44.6 °F 39.7 °F 39.2 °F 81% 30.12 in 3.1 mi WSW 9.2 mph - N/A   Haze
9:55 PM 44.6 °F 39.2 °F 37.4 °F 76% 30.12 in 3.1 mi SW 10.4 mph - N/A   Haze
10:00 PM 45 °F - 38 °F 68% 30.12 in 4 mi SW 11.2 mph - -   Light Haze
10:25 PM 44.6 °F 38.8 °F 37.4 °F 76% 30.09 in 3.7 mi WSW 11.5 mph - N/A   Haze
10:55 PM 44.6 °F 39.7 °F 39.2 °F 81% 30.09 in - WSW 9.2 mph - N/A   Haze
11:00 PM 45 °F - 39 °F 72% 30.13 in 3 mi WSW 8.9 mph - -   Light Haze
11:25 PM 46.4 °F 41.5 °F 39.2 °F 76% 30.09 in 2.8 mi West 10.4 mph - N/A   Haze
11:55 PM 46.4 °F 41.1 °F 41.0 °F 81% 30.09 in - West 11.5 mph - N/A   Haze